Lexington Weather

Lexington, Massachusetts, USA

47°F
10/22/2019 2:27am 
  • Lexington Conditions: Mostly cloudy
  • Temperature: 46.6°F / 8.1°CWarmer 1.3°F than last hour.
  • Dew Point: 45.0°FIncreased 1.8°Fsince last hour.
  • Relative Humidity: 94%Increased 2.0% since last hour.
  • Wind: Calm, 10-min avg: Calm, gust: None
  • Barometer: 30.12 in Steady
  • Visibility: 9 miles
  • Rain Today: 0.00 in
  •   

Regional Weather Roundup
for Boston, MA

        
000
ASUS41 KBOX 211510
RWRBOX

REGIONAL WEATHER ROUNDUP
NATIONAL WEATHER SERVICE BOSTON/NORTON MA
1100 AM EDT MON OCT 21 2019

NOTE:  "FAIR" INDICATES FEW OR NO CLOUDS BELOW 12,000 FEET WITH NO 
SIGNIFICANT WEATHER AND/OR OBSTRUCTIONS TO VISIBILITY.

MAZALL-211600-
EASTERN MASSACHUSETTS
  
CITY           SKY/WX    TMP DP  RH WIND       PRES   REMARKS
BOSTON         FAIR      62  48  60 NE13      30.09S                  
BEVERLY        PTSUNNY   56  49  77 N9        30.08F                  
LAWRENCE       FAIR      59  47  64 NE8       30.11F                  
BEDFORD        FAIR      63  46  54 N10       30.08F                  
BLUE HILL      NOT AVBL                                               
NORWOOD        FAIR      62  48  60 N9G17     30.08S                  
MARSHFIELD     FAIR      59  52  77 NE12G18   30.07S                  
PLYMOUTH       PTSUNNY   57  50  77 NE18G28   30.07S                  
TAUNTON        FAIR      62  47  57 NE8       30.06S                  
NEW BEDFORD    FAIR      61  46  57 NE15G22   30.04S                  
$$

MAZALL-211600-
CAPE COD AND THE ISLANDS
  
CITY           SKY/WX    TMP DP  RH WIND       PRES   REMARKS
FALMOUTH       CLOUDY    57  50  77 NE20G26   30.03S                  
HYANNIS        CLOUDY    59  51  75 NE17G24   30.02S                  
CHATHAM        NOT AVBL                                               
PROVINCETOWN   FAIR      59  52  77 NE14        N/A                   
NANTUCKET      CLOUDY    58  54  86 NE18G31   30.00S                  
MARTHAS VNYRD  CLOUDY    58  51  78 NE16      30.02S                  
$$
 
MAZALL-211600-
CENTRAL AND WESTERN MASSACHUSETTS
  
CITY           SKY/WX    TMP DP  RH WIND       PRES   REMARKS
WORCESTER      FAIR      52  46  80 NE9       30.09S                  
FITCHBURG      FAIR      57  47  69 NE5       30.11F                  
ORANGE         FAIR      55  46  71 NW8       30.12R                  
SPRINGFIELD    MOSUNNY   52  48  84 N10       30.10R                  
WESTFIELD      FAIR      53  46  77 NE7       30.11S                  
NORTH ADAMS    CLOUDY    44  42  93 CALM      30.14S                  
PITTSFIELD     FAIR      55  45  68 E6        30.10F                  
$$
 
RIZALL-211600-
RHODE ISLAND
  
CITY           SKY/WX    TMP DP  RH WIND       PRES   REMARKS
PROVIDENCE     FAIR      61  50  67 NE16      30.07R                  
NEWPORT        PTSUNNY   61  50  67 NE15G23   30.04R                  
BLOCK ISLAND   CLOUDY    58  51  78 NE15G23   30.04R                  
SMITHFIELD     PTSUNNY  N/A N/A N/A NE8       30.08R                  
WESTERLY       FAIR      62  52  69 N14G20    30.05R                  
$$
 
CTZALL-211600-
CONNECTICUT
  
CITY           SKY/WX    TMP DP  RH WIND       PRES   REMARKS
BRADLEY INTL   FAIR      58  47  66 N12       30.09S                  
HARTFORD       FAIR      56  48  74 N10       30.08F                  
BRIDGEPORT     FAIR      61  45  55 NE14      30.06S                  
DANBURY        FAIR      59  45  59 N10       30.09S                  
GROTON         FAIR      58  50  75 NE15      30.04R                  
NEW HAVEN      FAIR      61  47  59 N12       30.06S                  
CHESTER        FAIR      61  46  59 VRB7      30.06S                  
MERIDEN        FAIR      57  46  66 N10       30.08S                  
WILLIMANTIC    FAIR      59  45  59 NE10      30.08S                  
OXFORD         FAIR      57  46  66 N14       30.08S                  
$$

MEZ002-015-021-024-NHZ003-005-008-011-012-014-VTZ005-008-211600-
NORTHERN NEW ENGLAND
  
CITY           SKY/WX    TMP DP  RH WIND       PRES   REMARKS
PORTLAND ME    FAIR      58  43  57 E5        30.13R                  
BANGOR ME      FAIR      56  47  71 CALM      30.12F                  
CONCORD NH     CLOUDY    46  44  93 NE6       30.14S FOG              
MANCHESTER NH  FAIR      53  47  79 NW9       30.11R                  
NASHUA NH      CLOUDY    53  50  89 VRB5      30.12S                  
PORTSMOUTH NH  MOSUNNY   59  46  62 N6        30.09                   
JAFFREY NH     FAIR      52  47  83 CALM      30.12R                  
KEENE NH       CLOUDY    45  45 100 CALM      30.14S                  
BURLINGTON VT  FAIR      52  44  74 NW5       30.16S                  
MT. WASHINGTON MOSUNNY   39  16  38 N16         N/A  WCI  30          
$$

NYZ052-076-211600-
EASTERN NEW YORK
  
CITY           SKY/WX    TMP DP  RH WIND       PRES   REMARKS
ALBANY         CLOUDY    49  45  86 N6        30.16S FOG              
NEW YORK CITY  FAIR      60  44  55 NE13      30.06S                  
$$
 
ANZALL-211600-
MARINE OBSERVATIONS
  
STATION/POSITION TIME  TEMP    WIND        PRES    VSBY  WAVE
                       AIR SEA DIR/SP/G                  HT/PER
                 (UTC) (F)     (DEG/KT/KT) (MB)    (MI)  (FT/S)
BOSTON BUOY      1450   56 57   40/ 14/ 16 1017.6F         2/ 3
BUZZARDS BAY     1400   56      30/ 23/ 26 1017.0S
NANTUCKET SOUND  1440      56                N/A           2/ 3
MASS BAY-STELLWA 1404   56 56   30/ 14/ 16 1018.3F  1 7/8  2/ 3
ISLE OF SHOALS   1400   52      20/ 14/ 15 1018.9F
S OF BLOCK IS    1500      60                N/A           8/ 7
$$

......................KEY.........................
  SKY/WX - SKY CONDITION/PRESENT WEATHER
  TMP    - TEMPERATURE IN FAHRENHEIT
  DWPT   - DEWPOINT IN FAHRENHEIT
  RH     - RELATIVE HUMIDITY IN PERCENT
  WIND   - DIRECTION AND SPEED IN MPH
  PRES   - MEAN SEA LEVEL PRESSURE IN INCHES OF HG
  WCI    - WIND CHILL INDEX
  VSB    - VISIBILITY IN MILES
  HX     - HEAT INDEX
  TC     - TEMPERATURE IN CELSIUS
  VRB    - VARIABLE WIND DIRECTION
  N/A    - NOT AVAILABLE
  
      

Other recent Regional Weather Roundups

Tue Oct 22, 2:10am

Tue Oct 22, 2:00am

Tue Oct 22, 1:10am

Tue Oct 22, 1:00am

Tue Oct 22, 12:10am

Tue Oct 22, 12:00am

Mon Oct 21, 11:10pm

Mon Oct 21, 11:00pm

Mon Oct 21, 10:10pm

Mon Oct 21, 10:01pm

Mon Oct 21, 9:10pm

Mon Oct 21, 9:00pm

Mon Oct 21, 8:10pm

Mon Oct 21, 8:00pm

Mon Oct 21, 7:10pm

Mon Oct 21, 7:01pm

Mon Oct 21, 6:10pm

Mon Oct 21, 6:01pm

Mon Oct 21, 5:10pm

Mon Oct 21, 5:01pm

Mon Oct 21, 4:10pm

Mon Oct 21, 4:00pm

Mon Oct 21, 3:10pm

Mon Oct 21, 3:01pm

Mon Oct 21, 2:10pm

Mon Oct 21, 2:00pm

Mon Oct 21, 1:10pm

Mon Oct 21, 1:01pm

Mon Oct 21, 12:10pm

Mon Oct 21, 12:00pm

Mon Oct 21, 11:00am

Mon Oct 21, 10:10am

Mon Oct 21, 10:00am

Mon Oct 21, 9:10am

Mon Oct 21, 9:00am

Mon Oct 21, 7:10am

Mon Oct 21, 7:00am

Mon Oct 21, 6:10am

Mon Oct 21, 6:00am

Mon Oct 21, 5:10am

Mon Oct 21, 5:00am

Mon Oct 21, 4:10am

Mon Oct 21, 4:00am

Mon Oct 21, 3:10am

Mon Oct 21, 3:00am

Mon Oct 21, 2:10am

Mon Oct 21, 2:01am

Mon Oct 21, 1:10am

Mon Oct 21, 1:00am

Mon Oct 21, 12:10am

Mon Oct 21, 12:00am

Sun Oct 20, 11:10pm

Sun Oct 20, 11:00pm

Sun Oct 20, 10:10pm

Sun Oct 20, 10:00pm

Sun Oct 20, 9:10pm

Sun Oct 20, 9:01pm

Sun Oct 20, 8:10pm

Sun Oct 20, 8:00pm

Sun Oct 20, 7:10pm

Sun Oct 20, 7:01pm

Sun Oct 20, 6:10pm

Sun Oct 20, 6:00pm

Sun Oct 20, 5:10pm

Sun Oct 20, 5:00pm

Sun Oct 20, 4:10pm

Sun Oct 20, 4:00pm

Sun Oct 20, 3:10pm

Sun Oct 20, 3:00pm

Sun Oct 20, 2:10pm

Sun Oct 20, 2:01pm

Sun Oct 20, 1:10pm

Sun Oct 20, 1:01pm

Sun Oct 20, 12:10pm

Sun Oct 20, 12:00pm

Sun Oct 20, 11:10am

Sun Oct 20, 11:00am

Sun Oct 20, 10:10am

Sun Oct 20, 10:00am

Sun Oct 20, 9:10am

Sun Oct 20, 9:00am

Sun Oct 20, 8:10am

Sun Oct 20, 8:00am

Sun Oct 20, 7:10am

Sun Oct 20, 7:00am

Sun Oct 20, 6:10am

Sun Oct 20, 6:00am

Sun Oct 20, 5:10am

Sun Oct 20, 5:00am

Sun Oct 20, 4:10am

Sun Oct 20, 4:00am

Sun Oct 20, 3:10am

Sun Oct 20, 3:00am

Sun Oct 20, 2:10am

Sun Oct 20, 2:00am

Sun Oct 20, 1:10am

Sun Oct 20, 1:00am

Sun Oct 20, 12:10am

Sun Oct 20, 12:00am

Sat Oct 19, 11:10pm

Sat Oct 19, 11:00pm

Sat Oct 19, 10:10pm

Sat Oct 19, 10:00pm

Sat Oct 19, 9:10pm

Sat Oct 19, 9:00pm

Sat Oct 19, 8:10pm

Sat Oct 19, 8:00pm

Sat Oct 19, 7:10pm

Sat Oct 19, 7:00pm

Sat Oct 19, 6:10pm

Sat Oct 19, 6:00pm

Sat Oct 19, 5:10pm

Sat Oct 19, 5:00pm

Sat Oct 19, 4:10pm

Sat Oct 19, 4:00pm

Sat Oct 19, 3:10pm

Sat Oct 19, 3:01pm

Sat Oct 19, 2:10pm

Sat Oct 19, 2:00pm

Sat Oct 19, 1:10pm

Sat Oct 19, 1:01pm

Sat Oct 19, 12:10pm

Sat Oct 19, 12:00pm

Sat Oct 19, 11:10am

Sat Oct 19, 11:01am

Sat Oct 19, 10:10am

Sat Oct 19, 10:00am

Sat Oct 19, 9:10am

Sat Oct 19, 9:00am

Sat Oct 19, 8:10am

Sat Oct 19, 8:00am

Sat Oct 19, 7:10am

Sat Oct 19, 7:00am

Sat Oct 19, 6:10am

Sat Oct 19, 6:00am

Sat Oct 19, 5:10am

Sat Oct 19, 5:00am

Sat Oct 19, 4:10am

Sat Oct 19, 4:00am

Sat Oct 19, 3:10am

Sat Oct 19, 3:00am

Meta data:

ID: a2360f9f-cd5a-4584-9d9e-ba6885fc6f1a
Link: https://api.weather.gov/products/a2360f9f-cd5a-4584-9d9e-ba6885fc6f1a